Temp
54 54 53 53 52 51 49 51 37 58 54 36 36 34 48 53 58 61 62 63 65 68 70 67 68 68 73 80 79 70 76 70 62 66 77 80 76 71 69 62 58 64 63 64
54 53 53 53 52 51 49 43 43 58 49 33 33 45 47 53 54 53 55 58 65 70 67 63 69 70 77 80 77 71 74 66 58 62 67 73 70 73 73 70 69 62 60 64
53 53 53 53 51 51 52 45 34 42 39 42 45 43 42 40 54 53 54 54 58 59 63 70 67 69 75 79 79 67 72 68 63 59 63 69 64 69 73 70 62 63 65 69
53 53 53 52 51 51 55 46 38 41 34 34 40 43 43 42 42 53 56 53 57 60 58 63 64 70 71 75 72 73 72 62 67 70 73 72 69 69 70 67 69 63 68 70
54 53 53 52 51 51 49 36 36 38 38 40 40 41 42 43 46 46 50 50 54 58 56 63 63 69 68 68 75 72 72 63 68 66 72 72 68 71 71 70 71 71 72 71
53 53 53 52 52 51 46 41 42 38 37 35 35 34 41 45 49 52 55 55 54 54 58 61 66 67 68 71 69 68 67 65 63 58 68 68 61 69 71 71 74 73 67 75
52 53 53 52 52 52 53 46 42 38 37 42 42 44 44 41 45 47 55 58 53 58 66 67 67 67 67 67 67 72 65 63 65 61 64 49 68 78 77 73 74 77 77 79
53 53 53 52 51 51 49 50 46 43 37 42 43 45 44 46 44 39 47 59 61 63 60 57 54 56 58 63 67 65 70 67 62 57 57 64 68 72 73 70 70 79 78 81
53 53 54 54 52 51 51 50 49 45 38 42 41 38 44 43 42 41 47 57 62 61 53 45 45 47 55 55 58 67 65 69 64 59 52 50 69 76 81 80 65 80 81 80
53 53 54 54 53 52 50 48 53 45 38 49 43 37 36 46 47 46 51 55 54 60 47 35 40 48 62 55 54 53 57 60 57 58 54 63 74 80 79 61 67 81 82 82
52 53 53 53 53 52 51 51 53 46 39 47 48 43 36 40 45 43 51 49 52 52 46 42 38 45 57 57 62 60 57 55 56 60 56 53 78 77 68 76 79 82 83 84
52 53 53 53 52 52 52 45 51 51 43 50 56 53 55 50 52 47 50 50 52 56 51 52 50 43 51 54 51 64 56 64 61 63 63 72 78 78 80 84 82 82 83 84
52 53 53 52 52 52 52 52 56 46 44 51 54 54 58 59 60 60 47 51 51 52 55 51 54 45 53 44 52 58 63 68 63 63 70 72 77 79 82 84 83 84 85 85
52 53 52 53 53 53 53 52 54 51 49 42 51 61 56 61 61 58 58 55 57 55 56 50 52 48 58 54 57 58 64 67 62 62 68 73 76 79 82 82 83 81 86 87
52 53 53 53 53 52 55 56 56 56 46 40 49 57 59 60 59 56 57 54 53 54 49 47 46 55 54 59 59 57 65 62 61 61 70 71 74 80 83 80 79 83 85 84
52 53 53 52 52 52 53 49 59 57 51 44 38 57 54 56 56 55 54 55 54 54 50 50 51 57 51 48 49 59 66 68 67 65 66 67 70 73 78 80 82 84 83 85
51 52 52 52 52 57 50 46 52 53 53 43 40 43 56 55 50 49 50 53 54 53 51 51 52 51 51 48 46 60 66 67 66 67 66 66 72 74 80 81 84 79 84 86
51 51 51 52 51 51 53 56 54 54 51 45 35 37 44 52 43 42 50 48 52 50 51 53 51 55 50 44 56 61 65 68 65 66 69 67 70 71 73 78 81 80 80 82
51 51 51 56 55 53 55 53 53 58 51 41 38 34 33 52 45 44 46 48 39 53 45 50 48 46 43 52 56 60 62 61 63 67 70 70 69 71 74 77 79 80 81 83
51 56 55 49 56 52 54 50 48 48 51 48 41 44 35 39 38 39 39 40 40 35 47 54 45 45 56 59 61 63 63 62 62 59 60 65 67 71 74 75 79 80 82 83
52 45 47 56 54 55 50 42 43 47 40 48 46 41 36 43 36 36 43 37 44 35 44 45 46 48 54 60 61 64 63 63 63 63 64 67 68 69 74 76 79 81 82 81
48 46 48 51 51 49 42 42 46 43 41 50 44 43 43 40 40 34 37 34 40 33 48 44 43 52 57 58 58 60 62 62 62 62 63 67 68 70 72 77 79 81 82 82
52 48 47 47 47 35 34 31 40 40 47 51 47 41 42 42 41 38 35 32 33 36 34 40 44 51 52 50 54 58 61 61 60 61 65 69 70 72 75 76 78 79 78 80
49 45 34 36 35 36 35 36 36 42 46 48 47 44 46 49 41 38 33 37 35 32 32 34 42 44 46 49 50 52 57 60 60 60 65 67 67 68 69 70 70 67 69 73
47 47 34 36 42 42 45 46 44 51 53 49 48 48 49 42 40 40 35 33 33 33 33 38 43 46 46 46 48 49 53 53 50 53 60 61 63 64 62 63 64 67 69 71
51 49 43 49 46 48 51 51 51 56 54 54 52 43 40 37 34 33 32 32 30 32 40 43 45 45 46 47 49 48 48 48 47 51 58 60 57 58 57 57 60 62 70 72
49 46 52 50 50 49 51 54 53 58 52 44 45 35 34 38 34 33 33 32 32 37 42 45 49 52 52 52 52 49 49 50 51 52 52 52 53 56 57 55 59 61 64 70
MSLP
1012.68 1011.76 1010.93 1010.58 1010.43 1010.49 1011.74 1011.13 1010.67 1010.19 1011.28 1012.13 1011.43 1009.16 1005.54 1004.75 1002.42 1001.45 999.74 998.23 995.85 994.05 993.30 993.08 992.72 992.35 992.51 993.00 993.82 994.65 995.28 996.66 996.78 997.19 997.71 998.13 998.33 998.92 999.70 999.79 1000.15 1000.25 999.50 998.35
1012.27 1011.45 1010.64 1009.93 1010.22 1010.75 1011.24 1011.00 1010.61 1010.48 1011.06 1010.45 1009.92 1008.17 1006.62 1005.49 1003.87 1003.43 1001.45 999.39 997.18 995.13 993.87 993.22 992.46 992.51 992.82 992.96 993.38 994.19 995.58 995.94 996.62 996.90 998.00 997.87 997.52 998.23 998.81 999.54 999.76 999.08 998.72 998.16
1011.97 1011.26 1010.75 1010.22 1010.47 1010.90 1011.07 1010.81 1010.86 1010.97 1011.13 1010.35 1008.72 1007.62 1006.80 1006.20 1004.71 1004.12 1003.63 1001.49 999.52 997.31 994.52 993.48 992.52 992.45 992.73 992.88 993.23 994.19 995.07 995.30 995.02 994.49 995.48 997.10 997.53 997.54 997.97 998.46 998.66 998.67 998.08 997.66
1011.65 1011.10 1010.72 1010.69 1010.79 1011.00 1010.88 1010.75 1010.57 1010.58 1010.06 1010.19 1008.99 1007.99 1007.24 1005.93 1005.17 1004.67 1003.46 1001.30 999.59 997.37 995.48 994.22 993.39 992.92 993.07 993.31 993.40 994.46 994.55 994.57 995.08 995.25 995.43 995.98 996.44 996.80 997.15 997.47 997.81 997.63 997.36 996.97
1011.43 1010.93 1010.29 1010.25 1010.46 1010.80 1010.84 1011.15 1011.37 1011.08 1010.21 1009.56 1008.87 1008.18 1006.69 1005.70 1004.98 1004.94 1002.76 1002.05 1000.37 998.69 997.03 995.29 994.05 993.39 993.30 992.66 993.06 993.74 994.44 994.20 994.75 994.83 995.19 995.29 995.63 995.92 996.24 996.66 996.83 996.97 996.84 996.42
1011.34 1010.75 1010.24 1009.91 1009.98 1010.41 1010.33 1011.15 1011.23 1010.82 1009.59 1009.30 1008.64 1007.84 1006.86 1005.54 1004.78 1004.18 1002.87 1002.02 1000.66 999.64 998.35 998.11 996.56 995.45 994.39 993.31 993.14 993.31 994.13 994.38 994.56 994.36 994.89 995.21 994.81 994.24 994.95 995.58 995.79 996.01 995.80 996.06
1010.96 1010.40 1009.96 1009.45 1009.32 1009.70 1009.73 1010.37 1010.55 1010.07 1008.54 1007.73 1007.05 1006.76 1006.54 1005.91 1005.09 1003.94 1002.55 1001.63 1001.00 1000.74 1000.10 998.60 997.48 996.52 995.54 994.82 994.18 993.67 993.74 994.23 994.39 994.12 994.69 994.45 992.65 993.63 994.18 994.45 994.85 995.15 995.49 995.52
1010.63 1010.13 1009.84 1009.55 1009.61 1009.96 1009.99 1009.88 1009.81 1009.39 1008.52 1008.05 1007.37 1006.60 1006.14 1005.54 1005.69 1004.96 1003.58 1001.21 1001.01 1001.18 1000.73 998.91 997.41 996.50 995.80 994.89 994.54 994.58 993.88 993.82 993.79 993.72 993.57 993.40 993.13 993.22 992.97 993.45 993.80 994.40 994.72 994.95
1010.58 1010.17 1009.87 1009.60 1009.57 1009.77 1009.93 1009.74 1009.97 1009.55 1008.85 1007.51 1007.84 1007.63 1006.56 1004.98 1004.40 1004.29 1003.67 1002.50 1001.68 1001.29 1001.09 1000.26 997.59 995.59 994.77 994.31 994.71 994.91 994.67 993.85 993.62 993.74 993.43 992.47 992.14 992.67 993.08 993.20 992.94 993.62 994.06 994.27
1010.65 1010.32 1009.91 1009.63 1009.47 1009.60 1009.82 1009.70 1009.65 1009.64 1009.04 1007.15 1007.55 1007.52 1006.95 1005.06 1003.86 1002.95 1002.37 1001.76 1002.06 1001.56 1001.78 1001.86 999.90 996.59 994.67 993.45 993.54 994.68 994.45 993.95 993.30 993.20 993.29 992.55 992.24 991.91 993.08 992.76 992.56 992.76 993.27 993.82
1011.12 1010.46 1009.94 1009.54 1009.40 1009.51 1009.75 1009.38 1009.43 1009.60 1008.99 1007.04 1006.79 1007.08 1006.90 1005.72 1004.39 1003.29 1002.38 1002.41 1002.13 1001.51 1000.83 1001.27 1001.18 999.00 995.60 994.18 993.08 993.01 993.28 993.23 993.00 992.96 992.90 992.48 992.43 992.35 992.48 992.36 992.68 992.86 993.08 993.23
1011.33 1010.57 1010.07 1009.74 1009.54 1009.50 1009.53 1009.34 1009.30 1009.27 1008.83 1006.58 1006.10 1005.89 1005.45 1005.51 1004.78 1004.39 1003.34 1002.32 1001.42 1000.94 1000.77 1000.27 1000.28 1000.30 997.76 995.89 993.88 993.72 993.13 992.84 992.78 992.96 992.89 992.96 992.79 992.25 992.77 992.41 992.56 992.99 993.04 993.26
1011.58 1010.73 1010.03 1009.93 1009.77 1009.71 1009.53 1008.98 1008.80 1008.94 1008.08 1005.95 1004.94 1004.27 1004.46 1005.01 1004.67 1004.64 1003.95 1003.21 1003.41 1002.55 1002.37 1001.05 999.49 998.96 999.09 997.74 995.63 994.67 994.46 994.13 993.81 993.75 993.26 993.33 993.05 993.08 992.75 992.82 992.79 993.05 993.20 993.30
1011.74 1011.12 1010.55 1010.14 1009.90 1009.58 1009.20 1008.81 1008.77 1008.35 1007.58 1006.31 1004.45 1004.70 1004.31 1004.38 1004.46 1004.44 1004.38 1004.13 1003.91 1003.51 1002.65 1001.75 1000.52 999.65 998.91 997.73 996.84 995.72 995.04 994.96 994.82 994.53 994.44 993.89 993.61 993.17 992.91 993.14 993.45 993.74 993.49 993.39
1011.81 1011.22 1010.81 1010.38 1010.02 1009.67 1009.13 1008.75 1008.55 1008.47 1008.34 1006.96 1004.96 1004.29 1003.98 1004.18 1004.23 1004.23 1004.24 1004.22 1003.96 1003.18 1002.61 1001.92 1001.05 1000.11 999.53 998.03 997.22 996.02 995.34 994.81 994.42 994.16 994.85 994.39 994.01 993.67 993.08 993.49 993.62 993.67 993.42 993.57
1011.69 1011.11 1010.68 1010.37 1009.98 1009.51 1008.87 1007.96 1008.24 1008.33 1008.43 1007.53 1005.67 1004.11 1004.00 1004.09 1004.22 1004.08 1004.06 1003.91 1003.87 1003.28 1002.57 1001.81 1001.37 1000.66 1000.35 998.21 996.81 996.32 996.07 995.74 996.01 995.70 996.10 996.11 995.46 995.03 994.25 993.47 993.38 993.66 993.87 993.66
1011.45 1010.91 1010.42 1010.12 1009.90 1009.34 1008.86 1008.85 1008.68 1008.53 1008.24 1007.55 1005.98 1004.50 1003.64 1004.00 1004.49 1004.37 1004.16 1004.02 1003.55 1003.32 1002.40 1001.61 1000.94 1000.81 1000.55 999.07 997.16 996.07 995.78 995.98 996.28 996.42 996.61 996.01 995.27 994.65 994.27 993.90 993.37 993.48 993.74 993.78
1010.95 1010.42 1009.97 1009.66 1009.51 1009.23 1008.57 1008.43 1008.65 1008.37 1007.70 1007.59 1006.82 1005.39 1004.30 1004.27 1004.26 1004.16 1003.93 1003.54 1003.28 1002.91 1002.00 1001.26 1000.54 999.97 1000.12 998.43 996.87 996.60 996.06 995.80 996.27 996.35 996.71 996.69 995.98 995.45 995.14 994.43 993.83 993.71 993.81 993.83
1010.35 1009.77 1009.48 1009.20 1008.93 1008.21 1007.81 1008.40 1008.28 1007.67 1007.87 1007.03 1006.90 1005.89 1005.10 1004.55 1004.30 1004.38 1004.04 1003.57 1003.09 1002.24 1001.35 1000.33 1000.53 999.30 998.07 996.94 996.75 996.17 996.50 996.46 996.33 996.42 996.05 995.99 995.70 994.84 994.35 993.86 993.31 992.89 993.12 993.58
1009.90 1009.13 1008.73 1008.15 1008.12 1008.66 1008.29 1008.04 1007.34 1007.09 1006.80 1006.74 1006.08 1005.61 1005.44 1005.73 1004.85 1004.24 1004.25 1003.63 1002.70 1001.78 999.95 999.39 998.88 997.70 997.09 996.62 996.65 996.46 996.26 996.64 996.70 996.43 996.05 995.67 995.06 994.24 993.46 993.36 993.22 993.00 992.90 993.04
1009.95 1009.75 1009.11 1008.59 1008.44 1007.94 1007.49 1007.19 1006.70 1006.04 1005.78 1005.44 1005.23 1005.47 1005.24 1004.90 1004.65 1004.29 1003.90 1003.23 1001.71 1000.66 998.99 998.50 996.87 995.50 995.47 995.83 995.93 995.84 996.11 996.18 996.24 996.17 995.92 995.46 994.86 994.29 993.46 992.90 992.62 992.41 992.51 992.91
1010.94 1010.93 1010.37 1009.42 1008.11 1007.41 1007.21 1006.49 1006.04 1005.62 1004.67 1004.16 1004.30 1004.39 1004.42 1004.32 1004.39 1004.30 1003.71 1002.73 1001.78 1000.23 998.99 997.96 996.05 995.06 994.98 995.24 995.56 995.55 995.68 995.84 995.61 995.59 995.35 994.82 994.32 993.83 993.41 992.58 992.17 992.24 992.64 993.24
1010.37 1010.32 1009.53 1008.93 1008.33 1008.07 1007.71 1007.37 1006.28 1005.67 1004.77 1003.89 1003.82 1003.78 1003.91 1003.72 1003.57 1003.12 1002.74 1001.83 1001.02 1000.83 999.58 997.70 996.66 996.24 996.27 996.41 996.13 995.77 995.68 995.75 995.64 995.39 994.94 994.29 993.83 993.40 992.77 992.48 992.60 992.94 993.58 993.31
1009.58 1009.34 1009.52 1009.80 1009.11 1009.08 1008.83 1008.31 1007.59 1006.67 1005.27 1004.22 1003.95 1003.56 1002.87 1002.50 1002.65 1002.36 1002.05 1001.20 1000.57 999.99 999.00 998.18 997.51 997.42 997.25 997.02 996.86 996.26 995.67 995.80 995.81 995.55 994.81 994.55 994.20 994.21 994.44 994.64 994.92 995.31 994.43 993.97
1009.48 1009.43 1009.74 1009.64 1009.30 1008.86 1007.57 1006.91 1006.25 1004.83 1004.24 1003.85 1003.27 1002.54 1002.49 1002.46 1002.24 1002.13 1002.11 1001.43 1000.70 1000.17 999.44 998.74 998.07 998.12 997.99 997.56 997.04 996.67 996.41 996.56 996.84 996.59 995.97 995.53 995.05 995.24 995.64 995.85 995.67 995.59 996.38 995.18
1009.56 1009.41 1009.38 1008.68 1007.98 1007.01 1006.21 1005.55 1004.91 1004.41 1003.76 1002.76 1002.91 1003.05 1002.98 1003.22 1003.44 1003.24 1003.20 1002.81 1002.51 1001.81 999.99 999.39 999.09 999.07 998.41 998.00 997.48 997.53 997.74 997.81 997.33 997.42 996.96 996.42 996.72 996.37 997.07 996.89 997.13 998.29 997.21 996.39
1009.55 1009.55 1009.18 1008.66 1007.89 1007.25 1006.35 1005.68 1005.11 1004.63 1003.97 1003.49 1003.58 1004.21 1004.72 1004.91 1004.41 1004.23 1004.33 1004.27 1003.82 1002.42 1001.29 1000.77 1000.02 999.41 999.05 998.94 998.94 999.09 999.08 998.87 998.64 997.87 997.90 997.98 998.15 997.42 998.84 998.49 999.95 999.84 998.57 997.15
Wind_Speed
24 22 18 15 14 15 10 6 5 5 12 9 3 9 32 32 19 21 20 11 20 22 21 25 24 23 22 23 27 35 29 12 14 21 20 22 22 22 21 12 15 10 11 9
23 20 17 12 13 14 6 4 3 3 9 10 12 11 26 25 22 16 14 17 13 21 21 17 24 19 14 17 27 27 24 15 16 16 10 14 22 21 21 20 15 15 12 9
22 17 12 6 16 11 5 3 3 4 1 8 18 24 19 18 18 21 21 19 19 19 20 18 15 19 18 18 26 14 22 17 26 22 20 18 22 21 23 22 17 15 16 16
19 16 9 7 11 13 7 3 4 3 4 6 13 9 10 12 19 21 20 12 19 14 16 22 17 18 17 16 22 22 20 24 24 24 21 24 20 22 24 25 23 20 16 17
16 15 12 7 10 10 6 3 3 3 2 4 15 14 17 21 17 18 25 22 24 6 12 12 20 16 17 21 19 25 21 15 19 20 24 20 22 24 23 25 25 22 19 17
19 14 12 7 11 13 2 1 3 2 3 4 2 3 12 19 17 19 22 25 14 16 5 11 11 10 2 3 19 20 20 16 15 20 19 20 24 25 25 23 25 22 22 18
19 13 12 9 11 15 3 3 3 2 4 7 7 9 11 12 21 20 21 22 20 7 11 15 7 8 5 7 6 11 18 20 13 13 16 20 17 21 24 23 20 21 20 18
20 14 9 4 8 8 3 2 3 3 5 7 11 10 12 10 11 17 21 13 5 4 12 9 7 8 10 11 12 9 12 17 12 12 16 8 12 12 22 22 24 19 21 20
20 12 8 7 9 14 5 3 1 4 4 1 3 9 17 11 11 11 20 21 2 6 4 9 13 13 16 13 13 8 7 12 14 12 19 27 11 15 14 16 17 19 22 19
16 13 10 6 1 12 4 2 5 2 3 5 3 4 6 5 8 7 14 17 10 7 8 2 6 10 18 19 20 16 11 11 17 13 15 11 4 18 13 18 7 14 17 18
21 15 14 6 3 9 5 1 3 1 3 8 5 7 2 6 4 4 6 5 8 9 13 8 2 8 8 10 18 20 13 12 12 14 14 13 9 10 18 9 7 6 11 13
23 17 11 7 2 8 4 1 1 2 5 8 9 12 13 9 8 6 3 5 5 8 8 9 8 7 8 9 11 1 14 14 11 12 10 7 11 8 13 7 10 8 7 10
20 22 8 5 6 2 7 2 1 1 3 8 6 3 3 7 9 5 5 1 6 3 5 6 7 8 12 8 14 10 10 6 6 7 11 4 7 9 6 11 9 5 7 7
19 17 11 9 5 7 5 2 2 4 4 4 4 2 3 0 2 4 6 7 2 4 4 5 7 6 13 14 14 13 13 13 13 11 14 11 12 17 10 9 8 7 8 9
20 16 12 12 10 9 7 2 1 3 4 5 7 12 2 5 6 7 6 8 8 6 5 5 9 6 6 12 13 14 13 13 13 11 8 13 14 13 19 11 11 11 9 9
22 18 13 10 9 10 4 3 2 5 3 4 5 5 4 3 3 7 7 7 7 7 5 5 4 8 5 7 13 17 19 9 8 13 5 7 12 12 15 15 14 11 10 11
21 19 13 10 8 7 4 4 5 9 4 3 4 4 2 2 2 2 3 6 5 7 6 8 9 7 5 7 11 18 17 14 8 4 6 12 16 10 12 12 13 11 12 10
21 17 12 7 6 9 6 2 5 8 3 1 3 5 5 2 2 3 4 5 6 6 7 5 8 8 7 8 20 17 14 10 11 14 13 11 17 17 16 14 12 13 13 12
20 12 7 5 5 3 2 12 8 4 3 3 2 3 3 3 3 2 3 4 5 3 6 9 5 8 10 12 13 11 12 15 16 16 15 15 18 20 18 16 16 17 15 13
12 5 3 2 2 10 10 5 3 3 4 4 4 2 3 2 2 3 3 3 4 4 7 5 8 13 14 14 11 13 10 10 12 14 17 17 19 18 18 18 15 16 17 15
4 4 3 5 5 4 2 3 2 1 4 3 3 3 5 3 4 2 4 2 4 5 6 7 6 10 16 16 19 15 14 12 12 15 15 15 14 13 15 18 17 14 14 15
6 5 5 4 3 2 4 4 2 3 4 4 4 8 4 3 2 3 3 4 3 5 2 5 5 3 4 7 9 11 12 12 12 11 14 15 15 14 15 15 14 15 16 15
2 3 3 4 3 5 5 6 4 6 7 6 11 9 3 3 5 4 2 5 5 1 3 4 2 1 5 1 4 8 7 9 6 6 11 10 9 9 10 10 9 11 13 13
4 5 6 6 5 3 3 6 6 7 10 12 11 7 4 4 3 2 4 3 2 4 5 2 1 6 4 6 5 9 9 10 10 7 9 13 15 14 12 9 7 7 6 11
4 4 7 3 5 8 9 8 7 10 9 8 7 5 4 3 5 3 4 5 4 6 5 2 3 7 6 5 8 10 8 9 7 4 11 15 17 17 16 12 10 10 2 9
3 3 6 9 8 11 11 10 9 10 11 7 2 5 5 4 6 4 6 10 7 6 5 9 8 13 10 10 12 14 12 9 7 6 13 16 15 16 12 12 12 7 2 6
4 4 5 7 6 9 9 9 10 9 7 9 5 7 6 5 6 7 6 7 7 8 9 8 10 11 9 8 12 12 9 8 8 10 13 12 9 14 8 13 1 1 4 6
Wind_Direction
327 331 320 298 301 139 151 211 214 178 143 192 216 229 229 239 284 319 266 301 268 230 223 201 197 217 202 191 188 198 202 198 178 211 197 219 201 213 206 222 210 247 280 264
332 335 331 319 144 151 153 215 235 177 182 203 218 246 244 250 248 277 313 276 255 250 232 224 216 209 197 186 190 195 189 209 205 194 186 214 225 211 217 216 247 241 228 229
332 336 340 75 145 172 233 167 217 192 241 261 242 231 245 253 257 257 272 269 292 269 237 224 207 209 190 192 189 183 191 200 209 208 200 194 208 223 214 215 222 231 236 253
333 338 331 164 175 191 239 233 221 264 189 230 256 256 242 254 239 239 265 288 245 281 235 218 224 204 177 200 189 187 188 209 208 225 214 200 207 213 213 218 218 232 231 234
339 337 340 240 190 172 223 171 245 202 206 280 213 228 244 254 245 245 245 249 275 277 261 269 214 200 191 186 181 192 191 211 219 212 220 210 214 217 211 217 221 228 239 251
335 330 338 304 201 179 167 139 207 235 154 180 211 288 244 254 251 236 251 242 265 260 324 319 325 324 355 153 186 188 190 206 206 218 215 222 226 216 214 219 224 226 230 234
333 325 336 336 203 201 171 169 195 256 272 245 274 276 249 271 250 241 231 234 236 276 304 288 246 248 206 182 166 197 190 197 200 204 199 209 244 214 220 222 225 224 238 236
344 347 358 69 148 180 235 188 246 240 263 235 268 280 296 246 226 260 269 258 305 211 281 256 208 205 201 188 177 177 215 190 195 207 205 219 188 205 211 215 231 219 223 224
345 5 7 12 198 190 223 243 130 271 302 275 348 285 284 251 240 223 233 263 168 197 311 319 227 195 195 176 164 166 166 218 199 210 194 219 182 168 200 211 227 210 218 221
2 360 355 354 67 178 205 287 214 219 258 267 266 267 296 270 212 220 197 212 210 232 157 213 278 227 211 202 174 173 169 185 199 186 216 225 270 176 168 194 193 191 209 218
353 350 359 32 4 189 217 0 206 232 275 282 247 184 271 303 281 232 197 173 219 206 221 164 195 280 220 247 207 183 181 181 196 203 205 212 160 150 195 187 101 176 204 216
356 355 349 4 17 175 233 289 255 223 238 287 301 275 272 259 338 337 286 297 270 199 220 216 172 224 291 235 209 208 214 203 200 204 202 91 168 195 206 187 214 209 206 195
346 353 9 17 85 186 245 286 49 310 274 281 234 252 158 236 247 288 294 111 359 251 340 322 241 212 219 251 243 196 224 288 257 256 219 205 222 250 224 217 237 185 202 187
344 350 8 34 27 360 337 309 24 304 298 278 112 185 243 73 240 252 255 283 274 295 257 244 254 241 234 224 242 248 234 222 234 254 261 269 229 255 246 237 219 200 202 185
341 337 339 338 348 345 307 293 269 325 330 323 312 305 349 249 244 260 252 235 244 265 264 243 224 256 271 233 242 228 242 241 235 232 252 252 237 235 248 228 224 223 197 181
339 332 316 317 318 321 303 231 94 17 318 285 309 14 248 217 272 257 228 221 230 243 255 255 249 251 258 256 219 220 229 249 255 268 55 304 282 286 293 283 218 212 213 199
334 330 311 294 302 294 323 341 344 333 301 255 279 293 170 246 211 237 217 215 222 238 245 250 255 241 237 246 240 213 217 208 207 215 315 272 259 255 262 257 260 241 221 218
325 322 303 283 274 268 247 170 299 299 280 2 289 275 297 47 211 240 201 209 205 217 246 246 248 236 216 242 234 244 243 232 241 253 249 265 285 285 271 262 248 215 212 212
324 314 282 236 229 271 5 339 282 237 287 295 245 282 310 318 268 211 230 213 218 260 238 230 219 224 219 229 241 216 225 236 249 247 250 244 260 272 261 250 244 221 219 211
315 282 262 242 51 340 288 191 219 208 186 224 262 321 262 246 283 206 194 240 202 228 222 222 227 239 238 237 219 243 237 236 250 252 245 246 251 255 254 244 232 229 231 226
1 351 318 337 324 261 255 299 290 293 247 206 259 261 276 223 241 233 229 223 211 231 196 212 222 230 219 218 223 232 233 251 257 249 250 263 271 275 257 243 237 231 226 207
329 305 303 269 283 277 300 317 285 260 304 317 293 302 295 267 150 212 216 236 225 247 207 222 225 234 154 190 224 231 227 238 246 230 238 240 239 243 243 243 224 212 194 181
209 238 284 344 349 347 339 349 328 318 328 319 321 329 274 264 221 244 237 234 222 46 217 242 342 343 42 39 238 219 211 206 197 202 218 211 196 204 222 190 176 166 170 150
1 341 25 7 351 346 291 288 284 289 288 308 322 302 249 246 245 252 259 248 220 213 201 214 64 68 53 32 315 236 171 164 102 84 124 121 109 103 102 119 146 193 133 127
21 14 10 333 272 271 267 263 256 284 315 314 303 262 251 290 293 356 299 313 339 7 2 3 80 98 71 326 350 64 103 84 65 12 96 88 84 85 75 58 61 48 152 131
355 38 347 348 342 353 357 345 343 352 329 317 271 346 345 353 327 335 9 325 12 333 354 44 36 73 41 29 34 51 46 49 15 56 81 78 70 72 57 50 41 353 211 135
3 3 347 347 346 355 351 348 347 336 343 1 13 1 6 305 326 4 353 348 320 339 21 16 23 49 73 86 84 80 68 65 67 55 58 62 56 59 63 79 148 158 345 78